Year,Month,Day,Hour,Minute,Value (Times are PST for temperature in C)
2014,07,12,00,00,18.20
2014,07,12,00,01,18.20
2014,07,12,00,02,18.20
2014,07,12,00,03,18.10
2014,07,12,00,04,18.10
2014,07,12,00,05,18.10
2014,07,12,00,06,18.10
2014,07,12,00,07,18.10
2014,07,12,00,08,18.00
2014,07,12,00,09,18.00
2014,07,12,00,10,18.00
2014,07,12,00,11,18.00
2014,07,12,00,12,17.90
2014,07,12,00,13,17.90
2014,07,12,00,14,17.90
2014,07,12,00,15,17.90
2014,07,12,00,16,17.90
2014,07,12,00,17,17.80
2014,07,12,00,18,17.80
2014,07,12,00,19,17.80
2014,07,12,00,20,17.80
2014,07,12,00,21,17.80
2014,07,12,00,22,17.80
2014,07,12,00,23,17.80
2014,07,12,00,24,17.70
2014,07,12,00,25,17.70
2014,07,12,00,26,17.70
2014,07,12,00,27,17.70
2014,07,12,00,28,17.70
2014,07,12,00,29,17.70
2014,07,12,00,30,17.70
2014,07,12,00,31,17.70
2014,07,12,00,32,17.70
2014,07,12,00,33,17.70
2014,07,12,00,34,17.60
2014,07,12,00,35,17.60
2014,07,12,00,36,17.60
2014,07,12,00,37,17.60
2014,07,12,00,38,17.70
2014,07,12,00,39,17.70
2014,07,12,00,40,17.70
2014,07,12,00,41,17.70
2014,07,12,00,42,17.70
2014,07,12,00,43,17.70
2014,07,12,00,44,17.70
2014,07,12,00,45,17.80
2014,07,12,00,46,17.80
2014,07,12,00,47,17.80
2014,07,12,00,48,17.80
2014,07,12,00,49,17.70
2014,07,12,00,50,17.70
2014,07,12,00,51,17.70
2014,07,12,00,52,17.70
2014,07,12,00,53,17.60
2014,07,12,00,54,17.60
2014,07,12,00,55,17.60
2014,07,12,00,56,17.50
2014,07,12,00,57,17.50
2014,07,12,00,58,17.50
2014,07,12,00,59,17.50
2014,07,12,01,00,17.50
2014,07,12,01,01,17.40
2014,07,12,01,02,17.40
2014,07,12,01,03,17.40
2014,07,12,01,04,17.40
2014,07,12,01,05,17.40
2014,07,12,01,06,17.40
2014,07,12,01,07,17.30
2014,07,12,01,08,17.30
2014,07,12,01,09,17.30
2014,07,12,01,10,17.30
2014,07,12,01,11,17.30
2014,07,12,01,12,17.20
2014,07,12,01,13,17.20
2014,07,12,01,14,17.20
2014,07,12,01,15,17.20
2014,07,12,01,16,17.20
2014,07,12,01,17,17.20
2014,07,12,01,18,17.20
2014,07,12,01,19,17.10
2014,07,12,01,20,17.10
2014,07,12,01,21,17.10
2014,07,12,01,22,17.10
2014,07,12,01,23,17.10
2014,07,12,01,24,17.10
2014,07,12,01,25,17.10
2014,07,12,01,26,17.10
2014,07,12,01,27,17.10
2014,07,12,01,28,17.10
2014,07,12,01,29,17.10
2014,07,12,01,30,17.00
2014,07,12,01,31,17.00
2014,07,12,01,32,17.00
2014,07,12,01,33,17.00
2014,07,12,01,34,17.00
2014,07,12,01,35,17.00
2014,07,12,01,36,17.00
2014,07,12,01,37,17.00
2014,07,12,01,38,17.00
2014,07,12,01,39,17.00
2014,07,12,01,40,16.90
2014,07,12,01,41,16.90
2014,07,12,01,42,16.90
2014,07,12,01,43,16.90
2014,07,12,01,44,16.90
2014,07,12,01,45,16.90
2014,07,12,01,46,16.90
2014,07,12,01,47,16.90
2014,07,12,01,48,16.90
2014,07,12,01,49,16.90
2014,07,12,01,50,16.80
2014,07,12,01,51,16.80
2014,07,12,01,52,16.80
2014,07,12,01,53,16.80
2014,07,12,01,54,16.80
2014,07,12,01,55,16.80
2014,07,12,01,56,16.80
2014,07,12,01,57,16.80
2014,07,12,01,58,16.80
2014,07,12,01,59,16.80
2014,07,12,02,00,16.80
2014,07,12,02,01,16.80
2014,07,12,02,02,16.80
2014,07,12,02,03,16.80
2014,07,12,02,04,16.80
2014,07,12,02,05,16.80
2014,07,12,02,06,16.80
2014,07,12,02,07,16.80
2014,07,12,02,08,16.80
2014,07,12,02,09,16.80
2014,07,12,02,10,16.80
2014,07,12,02,11,16.70
2014,07,12,02,12,16.70
2014,07,12,02,13,16.70
2014,07,12,02,14,16.70
2014,07,12,02,15,16.70
2014,07,12,02,16,16.70
2014,07,12,02,17,16.60
2014,07,12,02,18,16.60
2014,07,12,02,19,16.60
2014,07,12,02,20,16.50
2014,07,12,02,21,16.50
2014,07,12,02,22,16.50
2014,07,12,02,23,16.40
2014,07,12,02,24,16.40
2014,07,12,02,25,16.40
2014,07,12,02,26,16.40
2014,07,12,02,27,16.40
2014,07,12,02,28,16.40
2014,07,12,02,29,16.40
2014,07,12,02,30,16.30
2014,07,12,02,31,16.30
2014,07,12,02,32,16.30
2014,07,12,02,33,16.30
2014,07,12,02,34,16.30
2014,07,12,02,35,16.30
2014,07,12,02,36,16.30
2014,07,12,02,37,16.30
2014,07,12,02,38,16.30
2014,07,12,02,39,16.20
2014,07,12,02,40,16.20
2014,07,12,02,41,16.20
2014,07,12,02,42,16.10
2014,07,12,02,43,16.10
2014,07,12,02,44,16.00
2014,07,12,02,45,16.00
2014,07,12,02,46,15.90
2014,07,12,02,47,15.90
2014,07,12,02,48,15.90
2014,07,12,02,49,15.80
2014,07,12,02,50,15.80
2014,07,12,02,51,15.80
2014,07,12,02,52,15.80
2014,07,12,02,53,15.80
2014,07,12,02,54,15.70
2014,07,12,02,55,15.70
2014,07,12,02,56,15.70
2014,07,12,02,57,15.70
2014,07,12,02,58,15.70
2014,07,12,02,59,15.60
2014,07,12,03,00,15.60
2014,07,12,03,01,15.60
2014,07,12,03,02,15.60
2014,07,12,03,03,15.60
2014,07,12,03,04,15.60
2014,07,12,03,05,15.60
2014,07,12,03,06,15.60
2014,07,12,03,07,15.60
2014,07,12,03,08,15.60
2014,07,12,03,09,15.60
2014,07,12,03,10,15.60
2014,07,12,03,11,15.60
2014,07,12,03,12,15.60
2014,07,12,03,13,15.60
2014,07,12,03,14,15.60
2014,07,12,03,15,15.60
2014,07,12,03,16,15.60
2014,07,12,03,17,15.60
2014,07,12,03,18,15.60
2014,07,12,03,19,15.60
2014,07,12,03,20,15.60
2014,07,12,03,21,15.60
2014,07,12,03,22,15.60
2014,07,12,03,23,15.50
2014,07,12,03,24,15.50
2014,07,12,03,25,15.50
2014,07,12,03,26,15.50
2014,07,12,03,27,15.50
2014,07,12,03,28,15.50
2014,07,12,03,29,15.50
2014,07,12,03,30,15.50
2014,07,12,03,31,15.50
2014,07,12,03,32,15.50
2014,07,12,03,33,15.50
2014,07,12,03,34,15.50
2014,07,12,03,35,15.50
2014,07,12,03,36,15.50
2014,07,12,03,37,15.40
2014,07,12,03,38,15.40
2014,07,12,03,39,15.40
2014,07,12,03,40,15.40
2014,07,12,03,41,15.40
2014,07,12,03,42,15.30
2014,07,12,03,43,15.30
2014,07,12,03,44,15.30
2014,07,12,03,45,15.30
2014,07,12,03,46,15.30
2014,07,12,03,47,15.30
2014,07,12,03,48,15.30
2014,07,12,03,49,15.20
2014,07,12,03,50,15.20
2014,07,12,03,51,15.20
2014,07,12,03,52,15.20
2014,07,12,03,53,15.20
2014,07,12,03,54,15.20
2014,07,12,03,55,15.20
2014,07,12,03,56,15.20
2014,07,12,03,57,15.20
2014,07,12,03,58,15.20
2014,07,12,03,59,15.10
2014,07,12,04,00,15.10
2014,07,12,04,01,15.10
2014,07,12,04,02,15.10
2014,07,12,04,03,15.10
2014,07,12,04,04,15.10
2014,07,12,04,05,15.20
2014,07,12,04,06,15.10
2014,07,12,04,07,15.10
2014,07,12,04,08,15.10
2014,07,12,04,09,15.10
2014,07,12,04,10,15.10
2014,07,12,04,11,15.10
2014,07,12,04,12,15.10
2014,07,12,04,13,15.10
2014,07,12,04,14,15.10
2014,07,12,04,15,15.00
2014,07,12,04,16,15.00
2014,07,12,04,17,15.00
2014,07,12,04,18,15.00
2014,07,12,04,19,15.00
2014,07,12,04,20,15.00
2014,07,12,04,21,15.00
2014,07,12,04,22,15.00
2014,07,12,04,23,15.00
2014,07,12,04,24,15.00
2014,07,12,04,25,15.00
2014,07,12,04,26,15.00
2014,07,12,04,27,15.00
2014,07,12,04,28,15.00
2014,07,12,04,29,15.00
2014,07,12,04,30,15.00
2014,07,12,04,31,15.00
2014,07,12,04,32,15.00
2014,07,12,04,33,15.00
2014,07,12,04,34,15.00
2014,07,12,04,35,15.00
2014,07,12,04,36,15.00
2014,07,12,04,37,15.00
2014,07,12,04,38,15.00
2014,07,12,04,39,15.00
2014,07,12,04,40,15.00
2014,07,12,04,41,15.00
2014,07,12,04,42,15.00
2014,07,12,04,43,15.00
2014,07,12,04,44,15.00
2014,07,12,04,45,15.00
2014,07,12,04,46,15.00
2014,07,12,04,47,15.00
2014,07,12,04,48,15.00
2014,07,12,04,49,15.00
2014,07,12,04,50,15.00
2014,07,12,04,51,14.90
2014,07,12,04,52,14.80
2014,07,12,04,53,14.80
2014,07,12,04,54,14.80
2014,07,12,04,55,14.80
2014,07,12,04,56,14.70
2014,07,12,04,57,14.70
2014,07,12,04,58,14.70
2014,07,12,04,59,14.70
2014,07,12,05,00,14.70
2014,07,12,05,01,14.70
2014,07,12,05,02,14.70
2014,07,12,05,03,14.70
2014,07,12,05,04,14.70
2014,07,12,05,05,14.80
2014,07,12,05,06,14.80
2014,07,12,05,07,14.80
2014,07,12,05,08,14.80
2014,07,12,05,09,14.80
2014,07,12,05,10,14.80
2014,07,12,05,11,14.90
2014,07,12,05,12,15.00
2014,07,12,05,13,15.00
2014,07,12,05,14,15.00
2014,07,12,05,15,15.00
2014,07,12,05,16,15.00
2014,07,12,05,17,15.10
2014,07,12,05,18,15.20
2014,07,12,05,19,15.30
2014,07,12,05,20,15.30
2014,07,12,05,21,15.30
2014,07,12,05,22,15.40
2014,07,12,05,23,15.40
2014,07,12,05,24,15.40
2014,07,12,05,25,15.50
2014,07,12,05,26,15.50
2014,07,12,05,27,15.60
2014,07,12,05,28,15.60
2014,07,12,05,29,15.60
2014,07,12,05,30,15.70
2014,07,12,05,31,15.70
2014,07,12,05,32,15.70
2014,07,12,05,33,15.80
2014,07,12,05,34,15.80
2014,07,12,05,35,15.80
2014,07,12,05,36,15.90
2014,07,12,05,37,15.90
2014,07,12,05,38,15.90
2014,07,12,05,39,15.90
2014,07,12,05,40,15.90
2014,07,12,05,41,16.00
2014,07,12,05,42,15.90
2014,07,12,05,43,15.90
2014,07,12,05,44,15.90
2014,07,12,05,45,15.90
2014,07,12,05,46,15.90
2014,07,12,05,47,15.80
2014,07,12,05,48,15.80
2014,07,12,05,49,15.80
2014,07,12,05,50,15.80
2014,07,12,05,51,15.70
2014,07,12,05,52,15.70
2014,07,12,05,53,15.70
2014,07,12,05,54,15.60
2014,07,12,05,55,15.60
2014,07,12,05,56,15.50
2014,07,12,05,57,15.40
2014,07,12,05,58,15.40
2014,07,12,05,59,15.40
2014,07,12,06,00,15.30
2014,07,12,06,01,15.30
2014,07,12,06,02,15.20
2014,07,12,06,03,15.10
2014,07,12,06,04,15.00
2014,07,12,06,05,15.00
2014,07,12,06,06,15.00
2014,07,12,06,07,15.00
2014,07,12,06,08,15.00
2014,07,12,06,09,15.00
2014,07,12,06,10,15.00
2014,07,12,06,11,15.00
2014,07,12,06,12,15.00
2014,07,12,06,13,15.00
2014,07,12,06,14,14.90
2014,07,12,06,15,14.90
2014,07,12,06,16,14.90
2014,07,12,06,17,14.90
2014,07,12,06,18,14.90
2014,07,12,06,19,14.80
2014,07,12,06,20,14.80
2014,07,12,06,21,14.80
2014,07,12,06,22,14.80
2014,07,12,06,23,14.70
2014,07,12,06,24,14.70
2014,07,12,06,25,14.70
2014,07,12,06,26,14.70
2014,07,12,06,27,14.70
2014,07,12,06,28,14.70
2014,07,12,06,29,14.70
2014,07,12,06,30,14.60
2014,07,12,06,31,14.60
2014,07,12,06,32,14.60
2014,07,12,06,33,14.60
2014,07,12,06,34,14.60
2014,07,12,06,35,14.60
2014,07,12,06,36,14.60
2014,07,12,06,37,14.50
2014,07,12,06,38,14.50
2014,07,12,06,39,14.50
2014,07,12,06,40,14.50
2014,07,12,06,41,14.50
2014,07,12,06,42,14.50
2014,07,12,06,43,14.50
2014,07,12,06,44,14.60
2014,07,12,06,45,14.60
2014,07,12,06,46,14.60
2014,07,12,06,47,14.70
2014,07,12,06,48,14.80
2014,07,12,06,49,14.90
2014,07,12,06,50,15.00
2014,07,12,06,51,15.00
2014,07,12,06,52,15.10
2014,07,12,06,53,15.20
2014,07,12,06,54,15.40
2014,07,12,06,55,15.50
2014,07,12,06,56,15.60
2014,07,12,06,57,15.70
2014,07,12,06,58,15.80
2014,07,12,06,59,15.90
2014,07,12,07,00,16.00
2014,07,12,07,01,16.10
2014,07,12,07,02,16.20
2014,07,12,07,03,16.30
2014,07,12,07,04,16.40
2014,07,12,07,05,16.50
2014,07,12,07,06,16.60
2014,07,12,07,07,16.70
2014,07,12,07,08,16.80
2014,07,12,07,09,16.90
2014,07,12,07,10,17.00
2014,07,12,07,11,17.00
2014,07,12,07,12,17.10
2014,07,12,07,13,17.20
2014,07,12,07,14,17.30
2014,07,12,07,15,17.40
2014,07,12,07,16,17.50
2014,07,12,07,17,17.60
2014,07,12,07,18,17.70
2014,07,12,07,19,17.70
2014,07,12,07,20,17.80
2014,07,12,07,21,17.90
2014,07,12,07,22,18.00
2014,07,12,07,23,18.10
2014,07,12,07,24,18.20
2014,07,12,07,25,18.20
2014,07,12,07,26,18.30
2014,07,12,07,27,18.40
2014,07,12,07,28,18.40
2014,07,12,07,29,18.50
2014,07,12,07,30,18.50
2014,07,12,07,31,18.60
2014,07,12,07,32,18.60
2014,07,12,07,33,18.60
2014,07,12,07,34,18.70
2014,07,12,07,35,18.80
2014,07,12,07,36,18.80
2014,07,12,07,37,18.90
2014,07,12,07,38,18.90
2014,07,12,07,39,18.90
2014,07,12,07,40,19.00
2014,07,12,07,41,19.10
2014,07,12,07,42,19.20
2014,07,12,07,43,19.30
2014,07,12,07,44,19.40
2014,07,12,07,45,19.50
2014,07,12,07,46,19.60
2014,07,12,07,47,19.70
2014,07,12,07,48,19.80
2014,07,12,07,49,19.90
2014,07,12,07,50,20.00
2014,07,12,07,51,20.00
2014,07,12,07,52,20.10
2014,07,12,07,53,20.20
2014,07,12,07,54,20.30
2014,07,12,07,55,20.30
2014,07,12,07,56,20.40
2014,07,12,07,57,20.50
2014,07,12,07,58,20.60
2014,07,12,07,59,20.60
2014,07,12,08,00,20.70
2014,07,12,08,01,20.80
2014,07,12,08,02,20.90
2014,07,12,08,03,20.90
2014,07,12,08,04,21.00
2014,07,12,08,05,21.10
2014,07,12,08,06,21.10
2014,07,12,08,07,21.20
2014,07,12,08,08,21.20
2014,07,12,08,09,21.20
2014,07,12,08,10,21.30
2014,07,12,08,11,21.30
2014,07,12,08,12,21.40
2014,07,12,08,13,21.40
2014,07,12,08,14,21.50
2014,07,12,08,15,21.50
2014,07,12,08,16,21.60
2014,07,12,08,17,21.60
2014,07,12,08,18,21.70
2014,07,12,08,19,21.70
2014,07,12,08,20,21.70
2014,07,12,08,21,21.70
2014,07,12,08,22,21.80
2014,07,12,08,23,21.80
2014,07,12,08,24,21.80
2014,07,12,08,25,21.80
2014,07,12,08,26,21.90
2014,07,12,08,27,22.00
2014,07,12,08,28,22.00
2014,07,12,08,29,22.10
2014,07,12,08,30,22.20
2014,07,12,08,31,22.20
2014,07,12,08,32,22.20
2014,07,12,08,33,22.30
2014,07,12,08,34,22.40
2014,07,12,08,35,22.40
2014,07,12,08,36,22.50
2014,07,12,08,37,22.50
2014,07,12,08,38,22.60
2014,07,12,08,39,22.70
2014,07,12,08,40,22.80
2014,07,12,08,41,22.80
2014,07,12,08,42,22.80
2014,07,12,08,43,22.90
2014,07,12,08,44,22.80
2014,07,12,08,45,22.80
2014,07,12,08,46,22.90
2014,07,12,08,47,22.90
2014,07,12,08,48,22.80
2014,07,12,08,49,22.80
2014,07,12,08,50,22.80
2014,07,12,08,51,22.80
2014,07,12,08,52,22.90
2014,07,12,08,53,22.90
2014,07,12,08,54,23.00
2014,07,12,08,55,23.00
2014,07,12,08,56,23.10
2014,07,12,08,57,23.10
2014,07,12,08,58,23.20
2014,07,12,08,59,23.30
2014,07,12,09,00,23.30
2014,07,12,09,01,23.30
2014,07,12,09,02,23.20
2014,07,12,09,03,23.30
2014,07,12,09,04,23.30
2014,07,12,09,05,23.30
2014,07,12,09,06,23.30
2014,07,12,09,07,23.40
2014,07,12,09,08,23.50
2014,07,12,09,09,23.50
2014,07,12,09,10,23.60
2014,07,12,09,11,23.70
2014,07,12,09,12,23.80
2014,07,12,09,13,23.90
2014,07,12,09,14,24.00
2014,07,12,09,15,24.10
2014,07,12,09,16,24.10
2014,07,12,09,17,24.20
2014,07,12,09,18,24.30
2014,07,12,09,19,24.30
2014,07,12,09,20,24.40
2014,07,12,09,21,24.40
2014,07,12,09,22,24.40
2014,07,12,09,23,24.40
2014,07,12,09,24,24.40
2014,07,12,09,25,24.40
2014,07,12,09,26,24.40
2014,07,12,09,27,24.40
2014,07,12,09,28,24.50
2014,07,12,09,29,24.60
2014,07,12,09,30,24.50
2014,07,12,09,31,24.50
2014,07,12,09,32,24.40
2014,07,12,09,33,24.30
2014,07,12,09,34,24.40
2014,07,12,09,35,24.40
2014,07,12,09,36,24.50
2014,07,12,09,37,24.60
2014,07,12,09,38,24.60
2014,07,12,09,39,24.60
2014,07,12,09,40,24.60
2014,07,12,09,41,24.60
2014,07,12,09,42,24.70
2014,07,12,09,43,24.70
2014,07,12,09,44,24.70
2014,07,12,09,45,24.70
2014,07,12,09,46,24.80
2014,07,12,09,47,24.90
2014,07,12,09,48,24.90
2014,07,12,09,49,25.00
2014,07,12,09,50,25.10
2014,07,12,09,51,25.10
2014,07,12,09,52,25.10
2014,07,12,09,53,25.10
2014,07,12,09,54,25.10
2014,07,12,09,55,25.10
2014,07,12,09,56,25.10
2014,07,12,09,57,25.10
2014,07,12,09,58,25.10
2014,07,12,09,59,25.20
2014,07,12,10,00,25.20
2014,07,12,10,01,25.20
2014,07,12,10,02,25.20
2014,07,12,10,03,25.10
2014,07,12,10,04,25.10
2014,07,12,10,05,25.00
2014,07,12,10,06,24.90
2014,07,12,10,07,24.80
2014,07,12,10,08,24.80
2014,07,12,10,09,24.80
2014,07,12,10,10,24.70
2014,07,12,10,11,24.70
2014,07,12,10,12,24.70
2014,07,12,10,13,24.70
2014,07,12,10,14,24.70
2014,07,12,10,15,24.70
2014,07,12,10,16,24.80
2014,07,12,10,17,24.90
2014,07,12,10,18,24.90
2014,07,12,10,19,24.90
2014,07,12,10,20,24.90
2014,07,12,10,21,24.90
2014,07,12,10,22,24.90
2014,07,12,10,23,25.00
2014,07,12,10,24,25.10
2014,07,12,10,25,25.00
2014,07,12,10,26,25.00
2014,07,12,10,27,25.00
2014,07,12,10,28,24.90
2014,07,12,10,29,24.90
2014,07,12,10,30,25.00
2014,07,12,10,31,25.10
2014,07,12,10,32,25.20
2014,07,12,10,33,25.20
2014,07,12,10,34,25.20
2014,07,12,10,35,25.10
2014,07,12,10,36,25.00
2014,07,12,10,37,24.90
2014,07,12,10,38,24.90
2014,07,12,10,39,24.80
2014,07,12,10,40,24.80
2014,07,12,10,41,24.80
2014,07,12,10,42,24.70
2014,07,12,10,43,24.70
2014,07,12,10,44,24.70
2014,07,12,10,45,24.70
2014,07,12,10,46,24.80
2014,07,12,10,47,24.80
2014,07,12,10,48,24.80
2014,07,12,10,49,24.80
2014,07,12,10,50,24.80
2014,07,12,10,51,24.80
2014,07,12,10,52,24.80
2014,07,12,10,53,24.80
2014,07,12,10,54,24.90
2014,07,12,10,55,24.90
2014,07,12,10,56,24.90
2014,07,12,10,57,24.90
2014,07,12,10,58,24.90
2014,07,12,10,59,24.90
2014,07,12,11,00,25.00
2014,07,12,11,01,25.10
2014,07,12,11,02,25.10
2014,07,12,11,03,25.20
2014,07,12,11,04,25.10
2014,07,12,11,05,25.10
2014,07,12,11,06,25.20
2014,07,12,11,07,25.20
2014,07,12,11,08,25.30
2014,07,12,11,09,25.30
2014,07,12,11,10,25.30
2014,07,12,11,11,25.40
2014,07,12,11,12,25.40
2014,07,12,11,13,25.50
2014,07,12,11,14,25.40
2014,07,12,11,15,25.50
2014,07,12,11,16,25.50
2014,07,12,11,17,25.50
2014,07,12,11,18,25.50
2014,07,12,11,19,25.60
2014,07,12,11,20,25.70
2014,07,12,11,21,25.80
2014,07,12,11,22,25.90
2014,07,12,11,23,25.90
2014,07,12,11,24,25.90
2014,07,12,11,25,26.00
2014,07,12,11,26,26.10
2014,07,12,11,27,26.20
2014,07,12,11,28,26.30
2014,07,12,11,29,26.30
2014,07,12,11,30,26.30
2014,07,12,11,31,26.30
2014,07,12,11,32,26.30
2014,07,12,11,33,26.30
2014,07,12,11,34,26.30
2014,07,12,11,35,26.20
2014,07,12,11,36,26.10
2014,07,12,11,37,26.10
2014,07,12,11,38,26.10
2014,07,12,11,39,26.20
2014,07,12,11,40,26.20
2014,07,12,11,41,26.20
2014,07,12,11,42,26.20
2014,07,12,11,43,26.20
2014,07,12,11,44,26.20
2014,07,12,11,45,26.30
2014,07,12,11,46,26.30
2014,07,12,11,47,26.40
2014,07,12,11,48,26.50
2014,07,12,11,49,26.50
2014,07,12,11,50,26.60
2014,07,12,11,51,26.60
2014,07,12,11,52,26.60
2014,07,12,11,53,26.70
2014,07,12,11,54,26.80
2014,07,12,11,55,27.00
2014,07,12,11,56,27.10
2014,07,12,11,57,27.20
2014,07,12,11,58,27.30
2014,07,12,11,59,27.50
2014,07,12,12,00,27.60
2014,07,12,12,01,27.60
2014,07,12,12,02,27.60
2014,07,12,12,03,27.50
2014,07,12,12,04,27.40
2014,07,12,12,05,27.30
2014,07,12,12,06,27.30
2014,07,12,12,07,27.30
2014,07,12,12,08,27.40
2014,07,12,12,09,27.40
2014,07,12,12,10,27.50
2014,07,12,12,11,27.50
2014,07,12,12,12,27.50
2014,07,12,12,13,27.60
2014,07,12,12,14,27.60
2014,07,12,12,15,27.70
2014,07,12,12,16,27.80
2014,07,12,12,17,27.80
2014,07,12,12,18,27.80
2014,07,12,12,19,27.80
2014,07,12,12,20,27.80
2014,07,12,12,21,27.90
2014,07,12,12,22,28.00
2014,07,12,12,23,28.00
2014,07,12,12,24,28.10
2014,07,12,12,25,28.20
2014,07,12,12,26,28.30
2014,07,12,12,27,28.40
2014,07,12,12,28,28.50
2014,07,12,12,29,28.60
2014,07,12,12,30,28.60
2014,07,12,12,31,28.70
2014,07,12,12,32,28.80
2014,07,12,12,33,29.00
2014,07,12,12,34,29.10
2014,07,12,12,35,29.20
2014,07,12,12,36,29.30
2014,07,12,12,37,29.30
2014,07,12,12,38,29.30
2014,07,12,12,39,29.20
2014,07,12,12,40,29.10
2014,07,12,12,41,29.10
2014,07,12,12,42,29.00
2014,07,12,12,43,29.00
2014,07,12,12,44,29.10
2014,07,12,12,45,29.10
2014,07,12,12,46,29.10
2014,07,12,12,47,29.20
2014,07,12,12,48,29.20
2014,07,12,12,49,29.30
2014,07,12,12,50,29.30
2014,07,12,12,51,29.40
2014,07,12,12,52,29.40
2014,07,12,12,53,29.50
2014,07,12,12,54,29.50
2014,07,12,12,55,29.60
2014,07,12,12,56,29.50
2014,07,12,12,57,29.40
2014,07,12,12,58,29.40
2014,07,12,12,59,29.40
2014,07,12,13,00,29.40
2014,07,12,13,01,29.40
2014,07,12,13,02,29.40
2014,07,12,13,03,29.40
2014,07,12,13,04,29.40
2014,07,12,13,05,29.40
2014,07,12,13,06,29.50
2014,07,12,13,07,29.60
2014,07,12,13,08,29.60
2014,07,12,13,09,29.70
2014,07,12,13,10,29.70
2014,07,12,13,11,29.70
2014,07,12,13,12,29.70
2014,07,12,13,13,29.70
2014,07,12,13,14,29.80
2014,07,12,13,15,29.80
2014,07,12,13,16,29.90
2014,07,12,13,17,29.80
2014,07,12,13,18,29.80
2014,07,12,13,19,29.80
2014,07,12,13,20,29.80
2014,07,12,13,21,29.90
2014,07,12,13,22,29.90
2014,07,12,13,23,29.90
2014,07,12,13,24,29.90
2014,07,12,13,25,29.90
2014,07,12,13,26,30.00
2014,07,12,13,27,29.90
2014,07,12,13,28,29.90
2014,07,12,13,29,29.80
2014,07,12,13,30,29.70
2014,07,12,13,31,29.70
2014,07,12,13,32,29.70
2014,07,12,13,33,29.70
2014,07,12,13,34,29.70
2014,07,12,13,35,29.70
2014,07,12,13,36,29.80
2014,07,12,13,37,29.80
2014,07,12,13,38,29.80
2014,07,12,13,39,29.80
2014,07,12,13,40,29.80
2014,07,12,13,41,29.90
2014,07,12,13,42,29.90
2014,07,12,13,43,30.00
2014,07,12,13,44,30.10
2014,07,12,13,45,30.10
2014,07,12,13,46,30.10
2014,07,12,13,47,30.10
2014,07,12,13,48,30.10
2014,07,12,13,49,30.10
2014,07,12,13,50,30.10
2014,07,12,13,51,30.20
2014,07,12,13,52,30.20
2014,07,12,13,53,30.30
2014,07,12,13,54,30.30
2014,07,12,13,55,30.30
2014,07,12,13,56,30.30
2014,07,12,13,57,30.20
2014,07,12,13,58,30.30
2014,07,12,13,59,30.30
2014,07,12,14,00,30.30
2014,07,12,14,01,30.40
2014,07,12,14,02,30.30
2014,07,12,14,03,30.30
2014,07,12,14,04,30.30
2014,07,12,14,05,30.30
2014,07,12,14,06,30.20
2014,07,12,14,07,30.30
2014,07,12,14,08,30.30
2014,07,12,14,09,30.40
2014,07,12,14,10,30.50
2014,07,12,14,11,30.50
2014,07,12,14,12,30.60
2014,07,12,14,13,30.60
2014,07,12,14,14,30.60
2014,07,12,14,15,30.70
2014,07,12,14,16,30.70
2014,07,12,14,17,30.80
2014,07,12,14,18,30.80
2014,07,12,14,19,30.70
2014,07,12,14,20,30.60
2014,07,12,14,21,30.50
2014,07,12,14,22,30.50
2014,07,12,14,23,30.50
2014,07,12,14,24,30.50
2014,07,12,14,25,30.60
2014,07,12,14,26,30.60
2014,07,12,14,27,30.60
2014,07,12,14,28,30.60
2014,07,12,14,29,30.60
2014,07,12,14,30,30.60
2014,07,12,14,31,30.70
2014,07,12,14,32,30.80
2014,07,12,14,33,30.80
2014,07,12,14,34,30.80
2014,07,12,14,35,30.80
2014,07,12,14,36,30.70
2014,07,12,14,37,30.70
2014,07,12,14,38,30.70
2014,07,12,14,39,30.60
2014,07,12,14,40,30.60
2014,07,12,14,41,30.60
2014,07,12,14,42,30.50
2014,07,12,14,43,30.40
2014,07,12,14,44,30.40
2014,07,12,14,45,30.30
2014,07,12,14,46,30.40
2014,07,12,14,47,30.40
2014,07,12,14,48,30.50
2014,07,12,14,49,30.50
2014,07,12,14,50,30.50
2014,07,12,14,51,30.60
2014,07,12,14,52,30.60
2014,07,12,14,53,30.60
2014,07,12,14,54,30.70
2014,07,12,14,55,30.70
2014,07,12,14,56,30.60
2014,07,12,14,57,30.50
2014,07,12,14,58,30.50
2014,07,12,14,59,30.50
2014,07,12,15,00,30.50
2014,07,12,15,01,30.60
2014,07,12,15,02,30.60
2014,07,12,15,03,30.60
2014,07,12,15,04,30.60
2014,07,12,15,05,30.70
2014,07,12,15,06,30.70
2014,07,12,15,07,30.80
2014,07,12,15,08,30.70
2014,07,12,15,09,30.60
2014,07,12,15,10,30.60
2014,07,12,15,11,30.60
2014,07,12,15,12,30.60
2014,07,12,15,13,30.60
2014,07,12,15,14,30.60
2014,07,12,15,15,30.70
2014,07,12,15,16,30.80
2014,07,12,15,17,30.90
2014,07,12,15,18,31.00
2014,07,12,15,19,31.00
2014,07,12,15,20,31.00
2014,07,12,15,21,31.10
2014,07,12,15,22,31.10
2014,07,12,15,23,31.20
2014,07,12,15,24,31.10
2014,07,12,15,25,31.10
2014,07,12,15,26,31.00
2014,07,12,15,27,30.90
2014,07,12,15,28,30.80
2014,07,12,15,29,30.80
2014,07,12,15,30,30.80
2014,07,12,15,31,30.90
2014,07,12,15,32,30.90
2014,07,12,15,33,31.00
2014,07,12,15,34,31.10
2014,07,12,15,35,31.30
2014,07,12,15,36,31.30
2014,07,12,15,37,31.30
2014,07,12,15,38,31.20
2014,07,12,15,39,31.20
2014,07,12,15,40,31.20
2014,07,12,15,41,31.30
2014,07,12,15,42,31.30
2014,07,12,15,43,31.30
2014,07,12,15,44,31.30
2014,07,12,15,45,31.30
2014,07,12,15,46,31.30
2014,07,12,15,47,31.40
2014,07,12,15,48,31.50
2014,07,12,15,49,31.60
2014,07,12,15,50,31.60
2014,07,12,15,51,31.60
2014,07,12,15,52,31.60
2014,07,12,15,53,31.50
2014,07,12,15,54,31.40
2014,07,12,15,55,31.40
2014,07,12,15,56,31.50
2014,07,12,15,57,31.40
2014,07,12,15,58,31.20
2014,07,12,15,59,31.10
2014,07,12,16,00,31.10
2014,07,12,16,01,31.00
2014,07,12,16,02,30.90
2014,07,12,16,03,31.00
2014,07,12,16,04,31.00
2014,07,12,16,05,31.10
2014,07,12,16,06,31.10
2014,07,12,16,07,31.00
2014,07,12,16,08,30.90
2014,07,12,16,09,31.00
2014,07,12,16,10,31.10
2014,07,12,16,11,31.20
2014,07,12,16,12,31.20
2014,07,12,16,13,31.20
2014,07,12,16,14,31.20
2014,07,12,16,15,31.10
2014,07,12,16,16,31.10
2014,07,12,16,17,31.10
2014,07,12,16,18,31.10
2014,07,12,16,19,31.10
2014,07,12,16,20,31.10
2014,07,12,16,21,31.10
2014,07,12,16,22,31.00
2014,07,12,16,23,30.90
2014,07,12,16,24,31.00
2014,07,12,16,25,31.00
2014,07,12,16,26,31.00
2014,07,12,16,27,31.10
2014,07,12,16,28,31.10
2014,07,12,16,29,31.20
2014,07,12,16,30,31.20
2014,07,12,16,31,31.20
2014,07,12,16,32,31.20
2014,07,12,16,33,31.30
2014,07,12,16,34,31.30
2014,07,12,16,35,31.30
2014,07,12,16,36,31.30
2014,07,12,16,37,31.40
2014,07,12,16,38,31.50
2014,07,12,16,39,31.60
2014,07,12,16,40,31.70
2014,07,12,16,41,31.80
2014,07,12,16,42,31.70
2014,07,12,16,43,31.70
2014,07,12,16,44,31.60
2014,07,12,16,45,31.50
2014,07,12,16,46,31.40
2014,07,12,16,47,31.40
2014,07,12,16,48,31.30
2014,07,12,16,49,31.30
2014,07,12,16,50,31.30
2014,07,12,16,51,31.30
2014,07,12,16,52,31.30
2014,07,12,16,53,31.30
2014,07,12,16,54,31.20
2014,07,12,16,55,31.10
2014,07,12,16,56,31.10
2014,07,12,16,57,31.00
2014,07,12,16,58,30.90
2014,07,12,16,59,30.90
2014,07,12,17,00,31.00
2014,07,12,17,01,31.00
2014,07,12,17,02,31.10
2014,07,12,17,03,31.00
2014,07,12,17,04,30.90
2014,07,12,17,05,30.80
2014,07,12,17,06,30.80
2014,07,12,17,07,30.80
2014,07,12,17,08,30.90
2014,07,12,17,09,30.80
2014,07,12,17,10,30.80
2014,07,12,17,11,30.90
2014,07,12,17,12,31.00
2014,07,12,17,13,31.00
2014,07,12,17,14,30.90
2014,07,12,17,15,30.90
2014,07,12,17,16,31.00
2014,07,12,17,17,31.00
2014,07,12,17,18,31.10
2014,07,12,17,19,31.20